ARABSAT-6A

Last updated on Sun Jan 18 2026 00:02:48 GMT+0000 (Coordinated Universal Time)

1 44186U 19021A 26017.58998963 .00000170 00000+0 00000+0 0 9995 2 44186 0.0391 358.9326 0006050 291.2990 69.6415 1.00271430 24642
UTC large
Height (km)
Speed (km/s)
/
Latitude / Longitude
Inclination (degrees)
Orbital Period (minutes)
Azimuth
Elevation
Range (km)
Doppler Factor

Next 0 passes for location: London (51.5072 / 0.1276)

Sorry there are no passes over London.